Regional Weather Roundup
Issued by NWS

Home | Current Version | Previous Version | Text Only | Print | Product List | Glossary Off
Versions: 1 2 3 4 5 6 7 8 9 10 11 12 13 14 15 16 17 18 19 20 21 22 23 24 25 26 27 28 29 30 31 32 33 34 35 36 37 38 39 40 41 42 43 44 45 46 47 48 49 50

000
ASUS43 KDTX 192010
RWRMI
MICHIGAN HOURLY REGIONAL WEATHER ROUNDUP
NATIONAL WEATHER SERVICE DETROIT/PONTIAC MI
ISSUED BY NATIONAL WEATHER SERVICE GRAND RAPIDS MI
300 PM EST SUN FEB 19 2017

NOTE: "FAIR" INDICATES FEW OR NO CLOUDS BELOW 12,000 FEET WITH NO
SIGNIFICANT WEATHER AND/OR OBSTRUCTION TO VISIBILITY.

MIZ047>049-052>055-059>063-066>070-074>076-081>083-192100-
SOUTHEAST LOWER MICHIGAN

CITY           SKY/WX    TMP DP  RH WIND       PRES   REMARKS
ADRIAN         SUNNY     63  31  30 NW8       30.03R
ALMA           SUNNY     59  28  30 W10G21    30.02R
ANN ARBOR      SUNNY     65  28  24 W15       30.00R
BAD AXE        SUNNY     52  33  48 NW12      30.01R
DETROIT CITY   SUNNY     64  28  25 NW12      29.99R
DETROIT        MOSUNNY   65  28  24 W12       30.00R
FLINT          SUNNY     57  35  43 W9        30.02R
GROSSE ILE     SUNNY     65  30  26 NW8       29.99R
HILLSDALE      SUNNY     63  30  29 W13       30.02S
HOWELL         SUNNY     60  26  27 NW8       30.01R

CITY           SKY/WX    TMP DP  RH WIND       PRES   REMARKS
JACKSON        SUNNY     64  25  22 NW14      30.02R
LANSING        SUNNY     61  31  32 NW9       30.03R
MASON          SUNNY     62  32  33 NW12      30.02R
MONROE         SUNNY     64  37  37 W18       30.00R
MT. CLEMENS    MOSUNNY   62  32  32 NW14      29.98R
PONTIAC        MOSUNNY   60  28  29 NW15      29.99R
PORT HOPE        N/A     45  35  68 NW5       30.00R
PORT HURON     SUNNY     59  36  41 NW10      29.99S
TRI CITIES     MOSUNNY   58  34  40 W8        30.01R
YPSILANTI      SUNNY     66  30  26 NW13G20   30.00R
$$
MIZ043>046-050>051-056>058-064>065-071>073-077>080-192100-
SOUTHWEST LOWER MICHIGAN

CITY           SKY/WX    TMP DP  RH WIND       PRES   REMARKS
BATTLE CREEK   SUNNY     63  26  24 W13       30.04R
BENTON HARBOR  SUNNY     54  32  43 W7        30.07S
BIG RAPIDS     MOSUNNY   57  26  29 W8G17     30.03R
COLDWATER      SUNNY     64  27  25 W9        30.04R
HOLLAND        SUNNY     56  34  43 W9        30.06R
GRAND RAPIDS   MOSUNNY   61  32  33 W10       30.03S
KALAMAZOO      SUNNY     65  25  22 W8        30.05S
MARSHALL       SUNNY     65  25  21 W9        30.03R
MOUNT PLEASANT SUNNY     57  31  36 W6        30.01R
MUSKEGON       MOSUNNY   57  28  33 W9        30.05S
STURGIS        SUNNY     63  30  29 NW8       30.03F
$$
MIZ016>042-192100-
NORTHERN LOWER MICHIGAN

CITY           SKY/WX    TMP DP  RH WIND       PRES   REMARKS
ALPENA         SUNNY     51  31  46 NW8       30.02R
BEAVER ISLAND  SUNNY     45  32  59 W9        30.06R
BELLAIRE       SUNNY     46  30  53 NW5       30.06R
CADILLAC       SUNNY     53  31  42 W6        30.03R
CHARLEVOIX     SUNNY     45  33  63 W8        30.09R
GAYLORD        SUNNY     48  28  46 NW9       30.02R
HOUGHTON LAKE  SUNNY     50  31  48 W8        30.02R
MANISTEE       SUNNY     51  33  50 W3        30.05R
OSCODA         SUNNY     48  31  51 SE7       30.00R
PELLSTON       SUNNY     43  28  55 NW12      30.05R
TRAVERSE CITY  PTSUNNY   46  32  58 NE7       30.05R
LUDINGTON      SUNNY     54  33  45 W6        30.05R
$$
MIZ007>008-015-192100-
EASTERN UPPER MICHIGAN

CITY           SKY/WX    TMP DP  RH WIND       PRES   REMARKS
KINROSS        SUNNY     41  28  60 NW12      30.03R
MACKINAC ISLAN SUNNY     41  31  66 W8G17     30.03R
NEWBERRY       SUNNY     43  28  55 NW3       30.03R
S. S. MARIE    SUNNY     44  29  55 NW12      30.02R
$$
MIZ004>006-011>014-085-192100-
CENTRAL UPPER MICHIGAN

CITY           SKY/WX    TMP DP  RH WIND       PRES   REMARKS
MANISTIQUE     SUNNY     45  31  58 N8        30.04S
ESCANABA       MOSUNNY   45  30  55 SE7       30.05R
MENOMINEE      MOSUNNY   49  32  52 SE8       30.05S
SAWYER-GWINN   SUNNY     43  28  56 CALM      30.04S
$$
MIZ001>003-009>011-084-192100-
WESTERN UPPER MICHIGAN

CITY           SKY/WX    TMP DP  RH WIND       PRES   REMARKS
IRON MOUNTAIN  MOSUNNY   51  29  42 CALM      30.00F
HOUGHTON       MOSUNNY   44  28  53 CALM      30.02S
COPPER HARBOR    N/A     38  32  79 CALM      30.06R
IRONWOOD       MOSUNNY   54  27  35 E5        29.98S
$$

ABBREVIATIONS USED IN REMARKS
   TC - TEMPERATURE IN CELSIUS
  WCI - WIND CHILL INDEX
   HX - HEAT INDEX
  VSB - VISIBILITY




USA.gov is the U.S. government's official web portal to all federal, state and local government web resources and services.